Location: Natural Bridges National Monument
(37.6093°N, 109.9767°W)
Time: 16:44:11
(UTC-07:00)

Envisat - Visible Passes

Search period start: 25 January 2020 00:00
Search period end: 04 February 2020 00:00
Orbit: 764 x 766 km, 98.1° (Epoch: 25 January)

Date Brightness Start Highest point End Pass type
(mag) Time Alt. Az. Time Alt. Az. Time Alt. Az.
25 Jan 5.8 05:57:55 10° NE 06:01:35 20° E 06:05:12 10° SE visible
25 Jan 4.5 18:48:35 10° SSW 18:53:19 40° W 18:58:06 10° NNW visible
26 Jan 3.2 06:58:59 10° NNE 07:04:05 83° ESE 07:09:09 10° S visible
26 Jan 3.0 18:11:25 10° SSE 18:16:30 88° ENE 18:21:36 10° NNW visible
27 Jan 4.8 06:22:35 10° NNE 06:27:14 35° E 06:31:50 10° SSE visible
27 Jan 5.6 19:15:03 10° SW 19:18:57 22° W 19:22:53 10° NW visible
28 Jan 6.1 05:47:16 10° ENE 05:50:11 15° E 05:53:05 10° SE visible
28 Jan 4.0 18:37:04 10° S 18:42:00 51° W 18:46:57 10° NNW visible
29 Jan 3.6 06:47:44 10° NNE 06:52:47 64° E 06:57:48 10° S visible
29 Jan 3.0 18:00:12 10° SSE 18:05:13 69° ENE 18:10:17 10° N visible
29 Jan 6.3 19:42:49 10° WSW 19:44:41 12° W 19:46:34 10° WNW visible
30 Jan 5.3 06:11:34 10° NE 06:15:53 27° E 06:20:10 10° SSE visible
30 Jan 5.2 19:03:15 10° SSW 19:07:35 28° W 19:11:57 10° NW visible
31 Jan 6.4 05:37:05 10° ENE 05:38:46 11° E 05:40:27 10° ESE visible
31 Jan 3.5 18:25:39 10° S 18:30:41 66° WSW 18:35:45 10° NNW visible
01 Feb 4.1 06:36:32 10° NNE 06:41:28 50° E 06:46:22 10° S visible
01 Feb 6.1 19:30:17 10° SW 19:33:17 16° W 19:36:18 10° NW visible
02 Feb 5.7 06:00:38 10° NE 06:04:30 22° E 06:08:21 10° SE visible
02 Feb 4.7 18:51:36 10° SSW 18:56:14 36° W 19:00:55 10° NNW visible
03 Feb 3.1 18:14:19 10° SSE 18:19:23 85° WSW 18:24:30 10° NNW visible
